カタログに戻る

CZ-3B R/B

運用中HEO
NORAD 44077·ROCKET BODY·🇨🇳 China

打ち上げ Mar 31, 2019 から Xichang Satellite Launch Center

Loading…

次のパス (今後24時間)

TLE

最新Source: Space-Track

元期: Sep 14, 2026, 12:02 UTC

1 44077U 19017B   26257.50203574  .00268876  78940-8  79599-3 0  9993
2 44077  26.8215  61.4655 4754983 304.4880  19.2770  6.24706761 95720

AllMySatでCZ-3B R/Bをリアルタイム追跡

Download on the App Store